Location: Wien
(48.2082°N, 16.3738°E)
Time: 10:26:06
(UTC+01:00)

Vanguard 1 Rocket - Visible Passes

Search period start: 25 February 2024 00:00
Search period end: 06 March 2024 00:00
Orbit: 654 x 4218 km, 34.3° (Epoch: 24 February)

Date Brightness Start Highest point End Pass type
(mag) Time Alt. Az. Time Alt. Az. Time Alt. Az.
25 Feb 11.6 05:18:33 10° S 05:31:53 20° SSE 05:41:36 10° ESE visible
26 Feb 11.9 04:09:31 10° SSE 04:18:39 14° SE 04:26:20 10° ESE visible
27 Feb 11.4 05:16:41 10° SSW 05:33:06 26° SSE 05:44:29 10° ESE visible
28 Feb 11.7 04:05:42 10° S 04:19:42 19° SE 04:30:40 10° ESE visible
29 Feb 11.9 02:59:07 10° SSE 03:06:22 12° SE 03:12:57 10° ESE visible
29 Feb 11.3 05:15:29 10° SSW 05:34:15 31° SSE 05:46:52 10° E visible
01 Mar 11.5 04:03:25 10° S 04:20:41 25° SE 04:33:42 10° E visible
02 Mar 11.7 02:53:54 10° SSE 03:07:09 17° SE 03:18:28 10° ESE visible
02 Mar 11.1 05:14:46 10° SSW 05:35:20 36° SSE 05:48:58 10° E visible
03 Mar 11.3 04:01:59 10° SSW 04:21:33 30° SSE 04:36:09 10° E visible
04 Mar 11.6 02:51:06 10° S 03:07:50 22° SE 03:21:52 10° E visible
04 Mar 11.0 05:14:23 10° SW 05:36:21 41° SSE 05:50:52 10° E visible
05 Mar 11.7 01:43:50 10° SSE 01:54:26 14° SE 02:04:19 10° ESE visible
05 Mar 11.2 04:01:05 10° SSW 04:22:23 35° SSE 04:38:14 10° E visible
